AWE429 KPHX-KELP

Flight info

Callsign AWE429
Flight time 0h 52m
Altitude 33000
Route ECLPS1 PHASE TEEES MOLLY5
Aircraft A320/M-SDE3FGHIRWY/LB1

Departure

Time 2026-04-20 04:29
Airport Phoenix Sky Harbor International Airport (KPHX)

Arrival

Time 2026-04-20 05:21
Airport El Paso International Airport (KELP)
Time Latitude Longitude Altitude Speed Heading
2026-04-20 04:03 33.43721 -111.99976 1106 ft 0 kts 90°
2026-04-20 04:16 33.43721 -111.99993 1108 ft 4 kts 89°
2026-04-20 04:16 33.43724 -112.00021 1117 ft 4 kts 64°
2026-04-20 04:16 33.43712 -112.00030 1120 ft 2 kts 360°
2026-04-20 04:17 33.43697 -112.00030 1114 ft 0 kts 360°
2026-04-20 04:18 33.43700 -112.00030 1114 ft 2 kts 360°
2026-04-20 04:19 33.43720 -112.00030 1117 ft 4 kts
2026-04-20 04:19 33.43746 -112.00030 1117 ft 4 kts
2026-04-20 04:19 33.43775 -112.00029 1119 ft 4 kts
2026-04-20 04:19 33.43794 -112.00029 1121 ft 0 kts
2026-04-20 04:20 33.43806 -112.00029 1120 ft 3 kts
2026-04-20 04:20 33.43820 -112.00029 1117 ft 0 kts
2026-04-20 04:20 33.43824 -112.00029 1120 ft 2 kts
2026-04-20 04:21 33.43828 -112.00029 1120 ft 0 kts
2026-04-20 04:21 33.43838 -112.00029 1120 ft 4 kts
2026-04-20 04:22 33.43883 -112.00025 1124 ft 8 kts
2026-04-20 04:22 33.43904 -111.99979 1119 ft 7 kts 90°
2026-04-20 04:22 33.43904 -111.99918 1124 ft 7 kts 90°
2026-04-20 04:22 33.43903 -111.99855 1124 ft 8 kts 90°
2026-04-20 04:23 33.43904 -111.99786 1124 ft 9 kts 89°
2026-04-20 04:23 33.43904 -111.99707 1124 ft 10 kts 90°
2026-04-20 04:23 33.43903 -111.99616 1124 ft 12 kts 90°
2026-04-20 04:23 33.43904 -111.99509 1124 ft 14 kts 90°
2026-04-20 04:24 33.43904 -111.99384 1124 ft 16 kts 90°
2026-04-20 04:24 33.43903 -111.99268 1124 ft 13 kts 93°
2026-04-20 04:24 33.43836 -111.99226 1119 ft 12 kts 179°
2026-04-20 04:24 33.43768 -111.99226 1120 ft 9 kts 180°
2026-04-20 04:25 33.43699 -111.99226 1120 ft 11 kts 180°
2026-04-20 04:25 33.43615 -111.99227 1119 ft 13 kts 180°
2026-04-20 04:25 33.43514 -111.99227 1120 ft 16 kts 180°
2026-04-20 04:25 33.43429 -111.99242 1119 ft 10 kts 200°
2026-04-20 04:26 33.43349 -111.99247 1121 ft 13 kts 180°
2026-04-20 04:26 33.43261 -111.99247 1112 ft 12 kts 180°
2026-04-20 04:26 33.43212 -111.99260 1124 ft 0 kts 217°
2026-04-20 04:27 33.43210 -111.99262 1124 ft 3 kts 217°
2026-04-20 04:27 33.43155 -111.99324 1116 ft 11 kts 224°
2026-04-20 04:27 33.43102 -111.99354 1124 ft 4 kts 247°
2026-04-20 04:28 33.43103 -111.99416 1123 ft 18 kts 271°
2026-04-20 04:28 33.43104 -111.99863 1124 ft 86 kts 271°
2026-04-20 04:28 33.43105 -112.00804 1125 ft 137 kts 270°
2026-04-20 04:28 33.43110 -112.02089 1268 ft 166 kts 270°
2026-04-20 04:29 33.43075 -112.03458 1907 ft 165 kts 264°
2026-04-20 04:29 33.42990 -112.04841 2449 ft 172 kts 265°
2026-04-20 04:29 33.42914 -112.06344 2757 ft 190 kts 265°
2026-04-20 04:29 33.42763 -112.07988 3035 ft 209 kts 254°
2026-04-20 04:30 33.42217 -112.09734 3228 ft 237 kts 248°
2026-04-20 04:30 33.41573 -112.11654 3626 ft 259 kts 248°
2026-04-20 04:30 33.40906 -112.13690 4396 ft 265 kts 248°
2026-04-20 04:30 33.40162 -112.15733 5167 ft 272 kts 237°
2026-04-20 04:31 33.38831 -112.17322 5950 ft 274 kts 208°
2026-04-20 04:31 33.37021 -112.17989 6757 ft 275 kts 182°
2026-04-20 04:31 33.35155 -112.17671 7524 ft 279 kts 161°
2026-04-20 04:31 33.33313 -112.16955 8411 ft 279 kts 162°
2026-04-20 04:32 33.31451 -112.16277 9283 ft 281 kts 163°
2026-04-20 04:32 33.29607 -112.15491 10088 ft 284 kts 153°
2026-04-20 04:32 33.27934 -112.14176 10578 ft 298 kts 139°
2026-04-20 04:32 33.26515 -112.12255 10821 ft 320 kts 128°
2026-04-20 04:33 33.25079 -112.10109 11024 ft 341 kts 128°
2026-04-20 04:33 33.23746 -112.07717 11569 ft 350 kts 119°
2026-04-20 04:33 33.22835 -112.05030 12158 ft 358 kts 109°
2026-04-20 04:33 33.22083 -112.02182 12887 ft 360 kts 108°
2026-04-20 04:34 33.21354 -111.99308 13591 ft 364 kts 108°
2026-04-20 04:34 33.20622 -111.96408 14263 ft 365 kts 108°
2026-04-20 04:34 33.19881 -111.93493 14837 ft 370 kts 108°
2026-04-20 04:34 33.19110 -111.90548 15425 ft 373 kts 109°
2026-04-20 04:35 33.18319 -111.87588 15999 ft 376 kts 109°
2026-04-20 04:35 33.17523 -111.84596 16527 ft 381 kts 109°
2026-04-20 04:35 33.16717 -111.81553 17099 ft 386 kts 109°
2026-04-20 04:35 33.15908 -111.78480 17685 ft 390 kts 109°
2026-04-20 04:36 33.14266 -111.72262 18765 ft 400 kts 109°
2026-04-20 04:36 33.13424 -111.69087 19311 ft 404 kts 109°
2026-04-20 04:36 33.12571 -111.65878 19876 ft 408 kts 109°
2026-04-20 04:37 33.11710 -111.62636 20433 ft 411 kts 109°
2026-04-20 04:37 33.10845 -111.59375 20936 ft 415 kts 109°
2026-04-20 04:37 33.09968 -111.56075 21435 ft 419 kts 109°
2026-04-20 04:37 33.09082 -111.52755 21902 ft 422 kts 109°
2026-04-20 04:38 33.08186 -111.49406 22359 ft 426 kts 109°
2026-04-20 04:38 33.07223 -111.46052 22807 ft 429 kts 114°
2026-04-20 04:38 33.05863 -111.42884 23253 ft 431 kts 123°
2026-04-20 04:38 33.04225 -111.39882 23629 ft 434 kts 124°
2026-04-20 04:39 33.02588 -111.36901 23987 ft 437 kts 124°
2026-04-20 04:39 33.00922 -111.33864 24335 ft 440 kts 124°
2026-04-20 04:39 32.99244 -111.30799 24682 ft 443 kts 124°
2026-04-20 04:39 32.97560 -111.27722 25023 ft 445 kts 124°
2026-04-20 04:40 32.95861 -111.24625 25376 ft 448 kts 124°
2026-04-20 04:40 32.94149 -111.21517 25724 ft 451 kts 124°
2026-04-20 04:40 32.92422 -111.18388 26066 ft 453 kts 124°
2026-04-20 04:40 32.90682 -111.15236 26405 ft 456 kts 124°
2026-04-20 04:41 32.88960 -111.12114 26735 ft 459 kts 124°
2026-04-20 04:41 32.87205 -111.08929 27077 ft 462 kts 124°
2026-04-20 04:41 32.85441 -111.05730 27405 ft 464 kts 124°
2026-04-20 04:41 32.83660 -111.02507 27727 ft 467 kts 125°
2026-04-20 04:42 32.81870 -110.99275 28057 ft 470 kts 124°
2026-04-20 04:42 32.80070 -110.96024 28370 ft 472 kts 124°
2026-04-20 04:42 32.78260 -110.92755 28687 ft 474 kts 124°
2026-04-20 04:42 32.76445 -110.89479 29036 ft 475 kts 124°
2026-04-20 04:43 32.74626 -110.86203 29492 ft 475 kts 125°
2026-04-20 04:43 32.72835 -110.82977 29945 ft 474 kts 125°
2026-04-20 04:43 32.71018 -110.79710 30328 ft 474 kts 125°
2026-04-20 04:43 32.69200 -110.76446 30687 ft 474 kts 125°
2026-04-20 04:44 32.67381 -110.73183 31049 ft 474 kts 125°
2026-04-20 04:44 32.65613 -110.69885 31404 ft 476 kts 121°
2026-04-20 04:44 32.64216 -110.66314 31738 ft 479 kts 111°
2026-04-20 04:44 32.63266 -110.62524 32076 ft 481 kts 105°
2026-04-20 04:45 32.62434 -110.58686 32424 ft 481 kts 106°
2026-04-20 04:45 32.61603 -110.54889 32774 ft 482 kts 106°
2026-04-20 04:45 32.60738 -110.50982 32935 ft 485 kts 106°
2026-04-20 04:46 32.59015 -110.43267 32962 ft 489 kts 107°
2026-04-20 04:46 32.57273 -110.35459 32965 ft 490 kts 107°
2026-04-20 04:47 32.55527 -110.27643 32971 ft 491 kts 107°
2026-04-20 04:47 32.53788 -110.19816 32979 ft 491 kts 106°
2026-04-20 04:48 32.52042 -110.12034 32984 ft 492 kts 107°
2026-04-20 04:48 32.50270 -110.04198 32984 ft 493 kts 107°
2026-04-20 04:49 32.48495 -109.96345 32976 ft 494 kts 107°
2026-04-20 04:49 32.46717 -109.88475 32967 ft 495 kts 107°
2026-04-20 04:50 32.44946 -109.80660 32964 ft 495 kts 107°
2026-04-20 04:50 32.43409 -109.72712 32965 ft 497 kts 99°
2026-04-20 04:51 32.42393 -109.64619 32962 ft 497 kts 99°
2026-04-20 04:51 32.41371 -109.56533 32963 ft 497 kts 99°
2026-04-20 04:52 32.40342 -109.48436 32962 ft 497 kts 99°
2026-04-20 04:52 32.39316 -109.40399 32973 ft 498 kts 100°
2026-04-20 04:53 32.38272 -109.32299 32970 ft 498 kts 100°
2026-04-20 04:53 32.37223 -109.24207 32971 ft 498 kts 100°
2026-04-20 04:54 32.36169 -109.16106 32975 ft 498 kts 100°
2026-04-20 04:54 32.35262 -109.08030 33003 ft 499 kts 97°
2026-04-20 04:55 32.34524 -108.99871 33060 ft 500 kts 97°
2026-04-20 04:55 32.33778 -108.91700 33113 ft 500 kts 97°
2026-04-20 04:56 32.32971 -108.83521 33167 ft 501 kts 98°
2026-04-20 04:56 32.32135 -108.75334 33190 ft 502 kts 98°
2026-04-20 04:57 32.31320 -108.67380 33188 ft 503 kts 98°
2026-04-20 04:57 32.30490 -108.59173 33197 ft 504 kts 98°
2026-04-20 04:58 32.29664 -108.50946 33150 ft 504 kts 98°
2026-04-20 04:58 32.28822 -108.42718 33120 ft 505 kts 98°
2026-04-20 04:59 32.27963 -108.34484 33082 ft 505 kts 98°
2026-04-20 04:59 32.27108 -108.26300 33058 ft 505 kts 98°
2026-04-20 05:00 32.26212 -108.18059 33061 ft 506 kts 99°
2026-04-20 05:00 32.25259 -108.09823 33081 ft 506 kts 99°
2026-04-20 05:01 32.24296 -108.01570 33113 ft 507 kts 99°
2026-04-20 05:01 32.23347 -107.93372 33151 ft 508 kts 99°
2026-04-20 05:02 32.22388 -107.85110 33048 ft 503 kts 100°
2026-04-20 05:02 32.21918 -107.81057 32796 ft 493 kts 100°
2026-04-20 05:02 32.21457 -107.77091 32542 ft 483 kts 100°
2026-04-20 05:02 32.21006 -107.73203 32287 ft 474 kts 100°
2026-04-20 05:03 32.20564 -107.69382 32033 ft 465 kts 100°
2026-04-20 05:03 32.20132 -107.65638 31743 ft 458 kts 99°
2026-04-20 05:03 32.19710 -107.61988 31051 ft 452 kts 99°
2026-04-20 05:03 32.19291 -107.58341 30364 ft 445 kts 99°
2026-04-20 05:04 32.18873 -107.54749 29614 ft 438 kts 99°
2026-04-20 05:04 32.18460 -107.51219 28870 ft 432 kts 99°
2026-04-20 05:04 32.18050 -107.47734 28158 ft 425 kts 99°
2026-04-20 05:04 32.17646 -107.44305 27486 ft 419 kts 99°
2026-04-20 05:05 32.17245 -107.40920 26806 ft 413 kts 99°
2026-04-20 05:05 32.16850 -107.37590 26153 ft 407 kts 99°
2026-04-20 05:05 32.16458 -107.34304 25492 ft 401 kts 99°
2026-04-20 05:05 32.16073 -107.31071 24849 ft 395 kts 99°
2026-04-20 05:06 32.15697 -107.27926 24240 ft 390 kts 99°
2026-04-20 05:06 32.15321 -107.24777 23613 ft 384 kts 99°
2026-04-20 05:06 32.14952 -107.21683 22887 ft 379 kts 99°
2026-04-20 05:06 32.14586 -107.18621 22170 ft 374 kts 99°
2026-04-20 05:07 32.14227 -107.15613 21483 ft 368 kts 99°
2026-04-20 05:07 32.13870 -107.12637 20796 ft 364 kts 99°
2026-04-20 05:07 32.13523 -107.09741 20152 ft 359 kts 99°
2026-04-20 05:07 32.13175 -107.06849 19510 ft 354 kts 99°
2026-04-20 05:08 32.12828 -107.03985 18877 ft 350 kts 100°
2026-04-20 05:08 32.12485 -107.01166 18224 ft 346 kts 100°
2026-04-20 05:08 32.12139 -106.98378 17514 ft 341 kts 102°
2026-04-20 05:08 32.11595 -106.95677 16801 ft 337 kts 106°
2026-04-20 05:09 32.11015 -106.93021 16257 ft 329 kts 106°
2026-04-20 05:09 32.10467 -106.90496 16139 ft 308 kts 106°
2026-04-20 05:09 32.09948 -106.88106 15884 ft 294 kts 106°
2026-04-20 05:09 32.09443 -106.85799 15460 ft 289 kts 107°
2026-04-20 05:10 32.08941 -106.83514 14953 ft 287 kts 106°
2026-04-20 05:10 32.08447 -106.81278 14472 ft 285 kts 107°
2026-04-20 05:10 32.07926 -106.79030 13998 ft 283 kts 107°
2026-04-20 05:10 32.07385 -106.76800 13601 ft 284 kts 110°
2026-04-20 05:11 32.06547 -106.74706 13229 ft 282 kts 125°
2026-04-20 05:11 32.05310 -106.72948 12999 ft 274 kts 140°
2026-04-20 05:11 32.03825 -106.71628 12868 ft 260 kts 153°
2026-04-20 05:11 32.02236 -106.70779 12748 ft 242 kts 164°
2026-04-20 05:12 32.00697 -106.70164 12640 ft 225 kts 163°
2026-04-20 05:12 31.99253 -106.69579 12468 ft 217 kts 164°
2026-04-20 05:12 31.97849 -106.69015 12174 ft 215 kts 163°
2026-04-20 05:12 31.96440 -106.68448 11860 ft 213 kts 163°
2026-04-20 05:13 31.95041 -106.67885 11545 ft 212 kts 163°
2026-04-20 05:13 31.93650 -106.67326 11218 ft 210 kts 163°
2026-04-20 05:13 31.92267 -106.66773 10888 ft 209 kts 162°
2026-04-20 05:13 31.90889 -106.66223 10568 ft 208 kts 162°
2026-04-20 05:14 31.89555 -106.65688 10150 ft 213 kts 161°
2026-04-20 05:14 31.88130 -106.65117 9556 ft 218 kts 160°
2026-04-20 05:14 31.86712 -106.64549 8978 ft 219 kts 159°
2026-04-20 05:14 31.85293 -106.63979 8414 ft 211 kts 158°
2026-04-20 05:15 31.84025 -106.63284 8128 ft 195 kts 143°
2026-04-20 05:15 31.83028 -106.62244 7968 ft 191 kts 128°
2026-04-20 05:15 31.82346 -106.60994 7752 ft 173 kts 115°
2026-04-20 05:15 31.81848 -106.59812 7597 ft 152 kts 115°
2026-04-20 05:16 31.81388 -106.58728 7445 ft 146 kts 115°
2026-04-20 05:16 31.80937 -106.57663 7302 ft 145 kts 115°
2026-04-20 05:16 31.80488 -106.56603 7157 ft 145 kts 115°
2026-04-20 05:16 31.80044 -106.55559 7017 ft 144 kts 115°
2026-04-20 05:17 31.79521 -106.54549 6848 ft 145 kts 121°
2026-04-20 05:17 31.78979 -106.53562 6664 ft 143 kts 120°
2026-04-20 05:17 31.78441 -106.52578 6461 ft 143 kts 120°
2026-04-20 05:17 31.77905 -106.51594 6276 ft 143 kts 120°
2026-04-20 05:18 31.77407 -106.50588 6085 ft 142 kts 112°
2026-04-20 05:18 31.77124 -106.49483 5911 ft 142 kts 100°
2026-04-20 05:18 31.77082 -106.48340 5718 ft 143 kts 87°
2026-04-20 05:18 31.77317 -106.47207 5550 ft 144 kts 73°
2026-04-20 05:19 31.77815 -106.46193 5365 ft 143 kts 57°
2026-04-20 05:19 31.78534 -106.45381 5186 ft 144 kts 44°
2026-04-20 05:19 31.79322 -106.44692 5005 ft 139 kts 45°
2026-04-20 05:19 31.79955 -106.43868 4818 ft 136 kts 63°
2026-04-20 05:20 31.80309 -106.42840 4630 ft 137 kts 82°
2026-04-20 05:20 31.80344 -106.41720 4431 ft 138 kts 95°
2026-04-20 05:20 31.80293 -106.40603 4264 ft 140 kts 93°
2026-04-20 05:20 31.80224 -106.39456 4075 ft 141 kts 94°
2026-04-20 05:21 31.80176 -106.38309 3950 ft 136 kts 95°
2026-04-20 05:21 31.80132 -106.37381 3947 ft 89 kts 93°
2026-04-20 05:21 31.80105 -106.36857 3946 ft 40 kts 94°
2026-04-20 05:21 31.80088 -106.36566 3947 ft 27 kts 94°
2026-04-20 05:22 31.80080 -106.36381 3947 ft 15 kts 95°
2026-04-20 05:22 31.80013 -106.36319 3947 ft 13 kts 182°
2026-04-20 05:22 31.79931 -106.36334 3947 ft 11 kts 214°
2026-04-20 05:22 31.79919 -106.36424 3947 ft 12 kts 272°
2026-04-20 05:23 31.79924 -106.36532 3947 ft 14 kts 274°
2026-04-20 05:23 31.79930 -106.36653 3947 ft 16 kts 273°
2026-04-20 05:23 31.79937 -106.36788 3947 ft 17 kts 273°
2026-04-20 05:23 31.79945 -106.36936 3947 ft 19 kts 274°
2026-04-20 05:24 31.79953 -106.37101 3947 ft 21 kts 273°
2026-04-20 05:24 31.79961 -106.37280 3947 ft 23 kts 274°
2026-04-20 05:24 31.79971 -106.37474 3947 ft 25 kts 274°
2026-04-20 05:24 31.79983 -106.37681 3947 ft 26 kts 273°
2026-04-20 05:25 31.79991 -106.37897 3947 ft 27 kts 273°
2026-04-20 05:25 31.79993 -106.38122 3947 ft 29 kts 270°
2026-04-20 05:25 31.79992 -106.38363 3947 ft 30 kts 269°
2026-04-20 05:25 31.79992 -106.38610 3947 ft 30 kts 269°
2026-04-20 05:26 31.79992 -106.38837 3947 ft 24 kts 269°
2026-04-20 05:26 31.79989 -106.38992 3947 ft 15 kts 269°
2026-04-20 05:26 31.80034 -106.39095 3947 ft 15 kts 314°
2026-04-20 05:26 31.80110 -106.39186 3947 ft 15 kts 315°
2026-04-20 05:27 31.80135 -106.39300 3947 ft 15 kts 272°
2026-04-20 05:27 31.80140 -106.39425 3947 ft 16 kts 274°
2026-04-20 05:27 31.80143 -106.39510 3947 ft 8 kts 262°
2026-04-20 05:27 31.80113 -106.39566 3947 ft 8 kts 229°
2026-04-20 05:28 31.80089 -106.39596 3947 ft 3 kts 228°
2026-04-20 05:28 31.80086 -106.39600 3947 ft 0 kts 228°